EW2546 Weather Reports


Display with metric or nautical units.
time (UTC)temp
F
wind
direction
speed
MPH
gust
MPH
rain 1hr
in
rain 24hr
in
rain mn
in
humidity
%
barometer
mb
20260906194542 72 0 0.0 0.0 0.00 0.00 0.00 47 1013.0
20260906194027 71 0 0.0 1.0 0.00 0.00 0.00 45 1013.1
20260906193524 71 0 0.0 1.0 0.00 0.00 0.00 44 1013.1
20260906193042 71 0 0.0 4.0 0.00 0.00 0.00 43 1013.1
20260906192525 71 0 0.0 4.0 0.00 0.00 0.00 44 1013.1
20260906192025 70 0 0.0 4.0 0.00 0.00 0.00 44 1013.0
20260906191547 70 0 0.0 1.0 0.00 0.00 0.00 50 1013.2
20260906191027 69 0 0.0 1.0 0.00 0.00 0.00 51 1013.2
20260906190524 69 0 0.0 1.0 0.00 0.00 0.00 47 1013.2
20260906190109 69 0 0.0 3.0 0.00 0.00 0.00 47 1013.2
20260906185528 68 0 0.0 3.0 0.00 0.00 0.00 53 1013.3
20260906185030 68 0 0.0 0.0 0.00 0.00 0.00 54 1013.5
20260906184543 68 0 0.0 1.0 0.00 0.00 0.00 52 1013.5
20260906184024 69 0 0.0 5.0 0.00 0.00 0.00 46 1013.5
20260906183527 70 0 0.0 5.0 0.00 0.00 0.00 41 1013.5
20260906183054 71 0 0.0 5.0 0.00 0.00 0.00 39 1013.4
20260906182527 72 201 0.0 2.0 0.00 0.00 0.00 41 1013.5
20260906182026 72 234 0.0 5.0 0.00 0.00 0.00 43 1013.5
20260906181544 71 0 0.0 5.0 0.00 0.00 0.00 40 1013.5
20260906181025 72 0 0.0 5.0 0.00 0.00 0.00 38 1013.4
20260906180528 72 0 0.0 2.0 0.00 0.00 0.00 43 1013.6
20260906180044 72 0 0.0 6.0 0.00 0.00 0.00 41 1013.4
20260906175525 72 245 0.0 6.0 0.00 0.00 0.00 39 1013.6
20260906175028 72 0 0.0 6.0 0.00 0.00 0.00 45 1013.6
20260906174548 72 0 0.0 6.0 0.00 0.00 0.00 40 1013.7
20260906174027 72 0 0.0 6.0 0.00 0.00 0.00 40 1013.8
20260906173528 71 0 0.0 7.0 0.00 0.00 0.00 40 1013.7
20260906173048 71 0 0.0 7.0 0.00 0.00 0.00 41 1013.7
20260906172529 71 203 0.0 2.0 0.00 0.00 0.00 43 1013.9
20260906172025 71 0 0.0 2.0 0.00 0.00 0.00 42 1014.0
20260906171545 70 0 0.0 8.0 0.00 0.00 0.00 44 1014.0
20260906171026 70 0 0.0 8.0 0.00 0.00 0.00 42 1014.1
20260906170525 70 0 0.0 4.0 0.00 0.00 0.00 41 1014.2
20260906170044 70 0 0.0 2.0 0.00 0.00 0.00 45 1014.2
20260906165524 70 0 0.0 2.0 0.00 0.00 0.00 42 1014.2
20260906165027 70 0 0.0 3.0 0.00 0.00 0.00 43 1014.3
20260906164546 69 0 0.0 3.0 0.00 0.00 0.00 44 1014.3
20260906164027 68 0 0.0 4.0 0.00 0.00 0.00 43 1014.4
20260906163524 68 0 0.0 4.0 0.00 0.00 0.00 46 1014.5
20260906163045 68 195 0.0 3.0 0.00 0.00 0.00 42 1014.4
20260906162525 68 0 0.0 3.0 0.00 0.00 0.00 43 1014.4
20260906162025 68 0 0.0 4.0 0.00 0.00 0.00 42 1014.4
20260906161543 68 0 0.0 4.0 0.00 0.00 0.00 44 1014.5
20260906161024 67 0 0.0 3.0 0.00 0.00 0.00 44 1014.5
20260906160525 67 0 0.0 4.0 0.00 0.00 0.00 47 1014.7
20260906160052 67 0 0.0 8.0 0.00 0.00 0.00 46 1014.7
20260906155530 66 0 1.0 8.0 0.00 0.00 0.00 44 1014.9
20260906155025 66 0 0.0 4.0 0.00 0.00 0.00 48 1014.9
20260906154546 66 0 0.0 7.0 0.00 0.00 0.00 44 1014.9
20260906154024 65 0 0.0 7.0 0.00 0.00 0.00 43 1015.0
20260906153526 65 17 0.0 4.0 0.00 0.00 0.00 45 1015.0
20260906153043 65 0 0.0 4.0 0.00 0.00 0.00 48 1015.0
20260906152524 64 0 0.0 4.0 0.00 0.00 0.00 47 1015.1
20260906152024 64 0 0.0 2.0 0.00 0.00 0.00 53 1015.2
20260906151542 64 0 0.0 3.0 0.00 0.00 0.00 50 1015.2
20260906151027 64 0 0.0 4.0 0.00 0.00 0.00 54 1015.3
20260906150528 63 0 0.0 7.0 0.00 0.00 0.00 56 1015.3
20260906150045 63 246 0.0 7.0 0.00 0.00 0.00 59 1015.4
20260906145526 63 0 0.0 6.0 0.00 0.00 0.00 59 1015.5
20260906145030 62 0 0.0 3.0 0.00 0.00 0.00 61 1015.5
20260906144544 62 0 0.0 3.0 0.00 0.00 0.00 61 1015.6
20260906144025 62 0 0.0 3.0 0.00 0.00 0.00 60 1015.5
20260906143524 62 0 0.0 4.0 0.00 0.00 0.00 63 1015.5
20260906143042 61 0 0.0 6.0 0.00 0.00 0.00 64 1015.5
20260906142528 61 0 0.0 6.0 0.00 0.00 0.00 65 1015.5
20260906142028 61 0 0.0 2.0 0.00 0.00 0.00 65 1015.5
20260906141547 61 0 0.0 0.0 0.00 0.00 0.00 67 1015.5
20260906141027 61 0 0.0 2.0 0.00 0.00 0.00 67 1015.6
20260906140526 61 0 0.0 2.0 0.00 0.00 0.00 70 1015.7
20260906140048 60 0 0.0 1.0 0.00 0.00 0.00 70 1015.6
20260906135524 60 0 0.0 1.0 0.00 0.00 0.00 73 1015.5
20260906135023 60 0 0.0 1.0 0.00 0.00 0.00 72 1015.5
20260906134544 59 0 0.0 1.0 0.00 0.00 0.00 73 1015.5
20260906134026 59 0 0.0 0.0 0.00 0.00 0.00 76 1015.6
20260906133523 59 0 0.0 0.0 0.00 0.00 0.00 75 1015.6
20260906133106 59 0 0.0 3.0 0.00 0.00 0.00 74 1015.8
20260906132528 59 0 0.0 3.0 0.00 0.00 0.00 73 1015.7
20260906132024 59 0 0.0 3.0 0.00 0.00 0.00 75 1015.7
20260906131557 59 0 0.0 1.0 0.00 0.00 0.00 76 1015.7
20260906131025 59 0 0.0 1.0 0.00 0.00 0.00 74 1015.6
20260906130528 59 0 0.0 1.0 0.00 0.00 0.00 78 1015.6
20260906130051 59 0 0.0 1.0 0.00 0.00 0.00 79 1015.6
20260906125528 59 0 0.0 1.0 0.00 0.00 0.00 81 1015.7
20260906125025 58 0 0.0 1.0 0.00 0.00 0.00 82 1015.7
20260906124544 58 0 0.0 0.0 0.00 0.00 0.00 84 1015.8
20260906124025 58 0 0.0 0.0 0.00 0.00 0.00 85 1015.7
20260906123525 58 0 0.0 0.0 0.00 0.00 0.00 85 1015.8
20260906123050 57 0 0.0 0.0 0.00 0.00 0.00 86 1015.8
20260906122528 57 0 0.0 0.0 0.00 0.00 0.00 86 1015.8
20260906122027 57 0 0.0 0.0 0.00 0.00 0.00 87 1015.8
20260906121546 56 0 0.0 0.0 0.00 0.00 0.00 87 1015.8
20260906121027 56 0 0.0 0.0 0.00 0.00 0.00 86 1015.8
20260906120526 56 0 0.0 0.0 0.00 0.00 0.00 86 1015.8
20260906120048 56 0 0.0 0.0 0.00 0.00 0.00 86 1015.7
20260906115526 56 0 0.0 0.0 0.00 0.00 0.00 85 1015.6
20260906115024 56 0 0.0 0.0 0.00 0.00 0.00 85 1015.6
20260906114553 56 0 0.0 0.0 0.00 0.00 0.00 85 1015.5
20260906114028 56 0 0.0 0.0 0.00 0.00 0.00 85 1015.6
20260906113525 56 0 0.0 0.0 0.00 0.00 0.00 86 1015.5
20260906113054 55 0 0.0 0.0 0.00 0.00 0.00 86 1015.5
20260906112527 55 0 0.0 0.0 0.00 0.00 0.00 85 1015.4
20260906112027 55 0 0.0 0.0 0.00 0.00 0.00 85 1015.4
20260906111553 55 0 0.0 0.0 0.00 0.00 0.00 85 1015.3
20260906111025 55 0 0.0 0.0 0.00 0.00 0.00 85 1015.4
20260906110524 55 0 0.0 0.0 0.00 0.00 0.00 85 1015.3
20260906110053 55 0 0.0 0.0 0.00 0.00 0.00 86 1015.3
20260906105526 55 0 0.0 0.0 0.00 0.00 0.00 86 1015.3
20260906105026 55 0 0.0 0.0 0.00 0.00 0.00 86 1015.2
20260906104547 55 0 0.0 0.0 0.00 0.00 0.00 87 1015.2
20260906104027 55 0 0.0 0.0 0.00 0.00 0.00 87 1015.1
20260906103528 55 0 0.0 0.0 0.00 0.00 0.00 87 1015.2
20260906103044 55 0 0.0 0.0 0.00 0.00 0.00 87 1015.2
20260906102524 55 0 0.0 0.0 0.00 0.00 0.00 88 1015.1
20260906102024 55 0 0.0 0.0 0.00 0.00 0.00 87 1015.1
20260906101541 55 0 0.0 0.0 0.00 0.00 0.00 88 1015.1
20260906101024 55 0 0.0 0.0 0.00 0.00 0.00 88 1015.1
20260906100528 55 0 0.0 0.0 0.00 0.00 0.00 89 1015.0
20260906100050 55 0 0.0 0.0 0.00 0.00 0.00 89 1015.1
20260906095524 55 0 0.0 0.0 0.00 0.00 0.00 89 1015.0
20260906095027 55 0 0.0 0.0 0.00 0.00 0.00 89 1015.0
20260906094603 55 0 0.0 0.0 0.00 0.00 0.00 89 1014.9
20260906094024 55 0 0.0 0.0 0.00 0.00 0.00 89 1014.9
20260906093524 55 0 0.0 0.0 0.00 0.00 0.00 89 1014.9
20260906093056 55 0 0.0 0.0 0.00 0.00 0.00 88 1014.9
20260906092524 55 0 0.0 0.0 0.00 0.00 0.00 88 1014.7
20260906092025 55 0 0.0 0.0 0.00 0.00 0.00 88 1014.9
20260906091543 55 0 0.0 0.0 0.00 0.00 0.00 88 1014.6
20260906091025 55 0 0.0 0.0 0.00 0.00 0.00 88 1014.6
20260906090525 55 0 0.0 0.0 0.00 0.00 0.00 89 1014.6
20260906090109 55 0 0.0 0.0 0.00 0.00 0.00 89 1014.6
20260906085524 55 0 0.0 0.0 0.00 0.00 0.00 90 1014.5
20260906085025 55 0 0.0 0.0 0.00 0.00 0.00 90 1014.6
20260906084553 55 0 0.0 0.0 0.00 0.00 0.00 90 1014.5
20260906084025 55 0 0.0 0.0 0.00 0.00 0.00 90 1014.5
20260906083524 55 0 0.0 0.0 0.00 0.00 0.00 90 1014.5
20260906083044 55 0 0.0 0.0 0.00 0.00 0.00 90 1014.5
20260906082524 55 0 0.0 0.0 0.00 0.00 0.00 90 1014.5
20260906082025 55 0 0.0 0.0 0.00 0.00 0.00 91 1014.5
20260906081543 55 0 0.0 0.0 0.00 0.00 0.00 91 1014.4
20260906081026 55 0 0.0 0.0 0.00 0.00 0.00 91 1014.5
20260906080527 54 0 0.0 0.0 0.00 0.00 0.00 91 1014.4
20260906080042 54 0 0.0 0.0 0.00 0.00 0.00 92 1014.3
20260906075527 54 0 0.0 0.0 0.00 0.00 0.00 92 1014.3
20260906075024 54 0 0.0 0.0 0.00 0.00 0.00 92 1014.2
20260906074552 54 0 0.0 0.0 0.00 0.00 0.00 92 1014.3
20260906074024 54 0 0.0 0.0 0.00 0.00 0.00 92 1014.3
20260906073524 54 0 0.0 0.0 0.00 0.00 0.00 92 1014.3
20260906073044 54 0 0.0 0.0 0.00 0.00 0.00 92 1014.3
20260906072524 54 0 0.0 0.0 0.00 0.00 0.00 92 1014.4
20260906072025 54 0 0.0 0.0 0.00 0.00 0.00 92 1014.3
20260906071543 53 0 0.0 0.0 0.00 0.00 0.00 92 1014.2
20260906071024 53 0 0.0 0.0 0.00 0.00 0.00 92 1014.1
20260906070525 53 0 0.0 0.0 0.00 0.00 0.00 92 1014.2
20260906070047 53 0 0.0 0.0 0.00 0.00 0.00 92 1014.2
20260906065527 53 0 0.0 0.0 0.00 0.00 0.00 91 1014.2
20260906065026 53 0 0.0 0.0 0.00 0.00 0.00 91 1014.0
20260906064544 53 0 0.0 0.0 0.00 0.00 0.00 91 1014.1
20260906064027 53 0 0.0 0.0 0.00 0.00 0.00 91 1014.0
20260906063526 53 0 0.0 0.0 0.00 0.00 0.00 91 1014.0
20260906063043 53 0 0.0 0.0 0.00 0.00 0.00 91 1014.0
20260906062524 53 0 0.0 0.0 0.00 0.00 0.00 91 1014.0
20260906062024 53 0 0.0 0.0 0.00 0.00 0.00 91 1014.0
20260906061548 53 0 0.0 0.0 0.00 0.00 0.00 91 1014.0
20260906061024 53 0 0.0 0.0 0.00 0.00 0.00 91 1014.0
20260906060528 53 0 0.0 0.0 0.00 0.00 0.00 91 1014.0
20260906060048 53 0 0.0 0.0 0.00 0.00 0.00 90 1013.9
20260906055527 53 0 0.0 0.0 0.00 0.00 0.00 90 1013.9
20260906055024 53 0 0.0 0.0 0.00 0.00 0.00 90 1013.9
20260906054547 54 0 0.0 0.0 0.00 0.00 0.00 90 1013.8
20260906054025 54 0 0.0 0.0 0.00 0.00 0.00 90 1013.9
20260906053530 54 0 0.0 0.0 0.00 0.00 0.00 89 1013.9
20260906053104 54 0 0.0 0.0 0.00 0.00 0.00 89 1014.0
20260906052528 54 0 0.0 0.0 0.00 0.00 0.00 89 1014.0
20260906052027 54 0 0.0 0.0 0.00 0.00 0.00 88 1014.0
20260906051544 54 0 0.0 0.0 0.00 0.00 0.00 88 1014.1
20260906051028 55 0 0.0 0.0 0.00 0.00 0.00 88 1014.0
20260906050525 55 0 0.0 0.0 0.00 0.00 0.00 88 1014.1
20260906050044 55 0 0.0 0.0 0.00 0.00 0.00 88 1014.1
20260906045525 55 0 0.0 0.0 0.00 0.00 0.00 88 1014.1
20260906045029 55 0 0.0 0.0 0.00 0.00 0.00 88 1014.1
20260906044549 55 0 0.0 0.0 0.00 0.00 0.00 87 1014.1
20260906044032 56 0 0.0 0.0 0.00 0.00 0.00 86 1014.1
20260906043527 56 0 0.0 0.0 0.00 0.00 0.00 86 1014.1
20260906043045 56 0 0.0 0.0 0.00 0.00 0.00 85 1014.1
20260906042524 56 0 0.0 0.0 0.00 0.00 0.00 85 1014.1
20260906042029 57 0 0.0 0.0 0.00 0.00 0.00 84 1014.1
20260906041551 57 0 0.0 0.0 0.00 0.00 0.00 84 1014.1
20260906041023 57 0 0.0 0.0 0.00 0.00 0.00 83 1014.1
20260906040524 58 0 0.0 0.0 0.00 0.00 0.00 83 1014.1
20260906040043 58 0 0.0 0.0 0.00 0.00 0.00 82 1014.1
20260906035531 58 0 0.0 0.0 0.00 0.00 0.00 81 1014.0
20260906035024 58 0 0.0 0.0 0.00 0.00 0.00 81 1014.0
20260906034548 58 0 0.0 0.0 0.00 0.00 0.00 81 1014.0
20260906034027 58 0 0.0 0.0 0.00 0.00 0.00 80 1014.0
20260906033524 59 0 0.0 0.0 0.00 0.00 0.00 80 1013.9
20260906033047 59 0 0.0 0.0 0.00 0.00 0.00 79 1013.9
20260906032524 59 0 0.0 0.0 0.00 0.00 0.00 79 1013.9
20260906032024 59 0 0.0 0.0 0.00 0.00 0.00 78 1013.9
20260906031551 59 0 0.0 0.0 0.00 0.00 0.00 79 1013.9
20260906031024 60 0 0.0 0.0 0.00 0.00 0.00 78 1013.9
20260906030527 60 0 0.0 0.0 0.00 0.00 0.00 77 1013.8
20260906030052 60 0 0.0 0.0 0.00 0.00 0.00 77 1013.9
20260906025524 60 0 0.0 0.0 0.00 0.00 0.00 77 1013.8
20260906025025 60 0 0.0 0.0 0.00 0.00 0.00 77 1013.8
20260906024607 60 0 0.0 0.0 0.00 0.00 0.00 76 1013.8
20260906024027 61 0 0.0 0.0 0.00 0.00 0.00 76 1013.8
20260906023527 61 0 0.0 0.0 0.00 0.00 0.00 76 1013.7
20260906023045 61 0 0.0 0.0 0.00 0.00 0.00 76 1013.7
20260906022526 61 0 0.0 0.0 0.00 0.00 0.00 76 1013.7
20260906022025 61 0 0.0 2.0 0.00 0.00 0.00 75 1013.7
20260906021551 61 0 0.0 7.0 0.00 0.00 0.00 74 1013.5
20260906021026 61 0 0.0 7.0 0.00 0.00 0.00 75 1013.5
20260906020527 61 0 0.0 3.0 0.00 0.00 0.00 75 1013.6
20260906020046 61 0 0.0 6.0 0.00 0.00 0.00 75 1013.6
20260906015524 61 0 0.0 6.0 0.00 0.00 0.00 76 1013.7
20260906015024 61 0 0.0 7.0 0.00 0.00 0.00 76 1013.6
20260906014550 61 0 0.0 7.0 0.00 0.00 0.00 76 1013.7
20260906014024 61 30 0.0 4.0 0.00 0.00 0.00 76 1013.6
20260906013529 61 0 0.0 6.0 0.00 0.00 0.00 76 1013.5
20260906013041 62 0 0.0 6.0 0.00 0.00 0.00 77 1013.6
20260906012523 62 0 0.0 0.0 0.00 0.00 0.00 77 1013.5
20260906012023 62 0 0.0 4.0 0.00 0.00 0.00 77 1013.5
20260906011555 62 0 0.0 4.0 0.00 0.00 0.00 77 1013.5
20260906011022 61 0 0.0 0.0 0.00 0.00 0.00 76 1013.5
20260906010526 61 0 0.0 2.0 0.00 0.00 0.00 77 1013.5
20260906010119 61 0 0.0 2.0 0.00 0.00 0.00 77 1013.5
20260906005524 61 0 0.0 0.0 0.00 0.00 0.00 77 1013.6
20260906005024 61 0 0.0 0.0 0.00 0.00 0.00 78 1013.5
20260906004548 61 0 0.0 0.0 0.00 0.00 0.00 77 1013.5
20260906004026 61 0 0.0 0.0 0.00 0.00 0.00 78 1013.3
20260906003523 61 0 0.0 0.0 0.00 0.00 0.00 80 1013.3
20260906003047 61 0 0.0 0.0 0.00 0.00 0.00 78 1013.4
20260906002523 61 0 0.0 0.0 0.00 0.00 0.00 78 1013.4
20260906002026 62 0 0.0 0.0 0.00 0.00 0.00 77 1013.4
20260906001603 62 0 0.0 0.0 0.00 0.00 0.00 76 1013.4
20260906001027 62 0 0.0 0.0 0.00 0.00 0.00 76 1013.3
20260906000523 63 0 0.0 0.0 0.00 0.00 0.00 75 1013.3
20260906000046 63 0 0.0 0.0 0.00 0.00 0.00 74 1013.2
20260905235524 63 0 0.0 0.0 0.00 0.00 0.00 72 1013.2
20260905235025 64 0 0.0 0.0 0.00 0.00 0.00 71 1013.1
20260905234544 64 0 0.0 0.0 0.00 0.00 0.00 70 1013.0
20260905234025 64 0 0.0 0.0 0.00 0.00 0.00 69 1013.0
20260905233524 65 0 0.0 0.0 0.00 0.00 0.00 69 1013.1
20260905233043 65 0 0.0 0.0 0.00 0.00 0.00 67 1013.1
20260905232529 65 0 0.0 0.0 0.00 0.00 0.00 67 1012.9
20260905232026 65 0 0.0 0.0 0.00 0.00 0.00 66 1012.9
20260905231545 65 0 0.0 0.0 0.00 0.00 0.00 65 1012.9
20260905231024 66 0 0.0 0.0 0.00 0.00 0.00 65 1012.8
20260905230523 66 0 0.0 2.0 0.00 0.00 0.00 66 1012.6
20260905230052 66 0 0.0 2.0 0.00 0.00 0.00 66 1012.7
20260905225524 66 0 0.0 2.0 0.00 0.00 0.00 66 1012.7
20260905225025 66 0 0.0 4.0 0.00 0.00 0.00 66 1012.7
20260905224546 67 0 0.0 4.0 0.00 0.00 0.00 66 1012.7
20260905224024 67 0 0.0 3.0 0.00 0.00 0.00 65 1012.5
20260905223527 67 0 0.0 1.0 0.00 0.00 0.00 64 1012.6
20260905223044 68 0 0.0 1.0 0.00 0.00 0.00 63 1012.5
20260905222525 68 0 0.0 4.0 0.00 0.00 0.00 64 1012.5
20260905222028 68 0 0.0 6.0 0.00 0.00 0.00 62 1012.4
20260905221551 68 0 0.0 6.0 0.00 0.00 0.00 60 1012.3
20260905221024 69 0 0.0 2.0 0.00 0.00 0.00 60 1012.3
20260905220525 69 0 0.0 11.0 0.00 0.00 0.00 59 1012.2
20260905220047 69 0 0.0 11.0 0.00 0.00 0.00 60 1012.1
20260905215528 69 0 1.0 11.0 0.00 0.00 0.00 60 1012.1
20260905215023 69 0 0.0 4.0 0.00 0.00 0.00 61 1012.0
20260905214553 69 0 0.0 4.0 0.00 0.00 0.00 61 1011.8
20260905214028 69 0 0.0 4.0 0.00 0.00 0.00 59 1011.7
20260905213526 69 0 0.0 4.0 0.00 0.00 0.00 62 1011.8
20260905213055 70 0 0.0 8.0 0.00 0.00 0.00 59 1011.8
20260905212528 70 0 0.0 8.0 0.00 0.00 0.00 61 1011.7
20260905212026 70 0 0.0 8.0 0.00 0.00 0.00 59 1011.8
20260905211546 70 0 0.0 8.0 0.00 0.00 0.00 59 1011.7
20260905211024 70 0 0.0 8.0 0.00 0.00 0.00 59 1011.7
20260905210528 71 0 0.0 2.0 0.00 0.00 0.00 59 1011.7
20260905210052 71 0 0.0 8.0 0.00 0.00 0.00 59 1011.6
20260905205528 72 0 0.0 8.0 0.00 0.00 0.00 57 1011.6
20260905205024 72 0 1.0 10.0 0.00 0.00 0.00 54 1011.5
20260905204547 73 0 0.0 10.0 0.00 0.00 0.00 56 1011.5
20260905204026 74 28 0.0 8.0 0.00 0.00 0.00 52 1011.5
20260905203525 74 0 0.0 8.0 0.00 0.00 0.00 53 1011.4
20260905203053 74 0 0.0 3.0 0.00 0.00 0.00 55 1011.3
20260905202528 74 0 0.0 0.0 0.00 0.00 0.00 54 1011.4
20260905202029 74 0 0.0 6.0 0.00 0.00 0.00 54 1011.4
20260905201555 74 0 0.0 6.0 0.00 0.00 0.00 52 1011.3
20260905201028 74 0 0.0 8.0 0.00 0.00 0.00 53 1011.3
20260905200526 73 328 0.0 8.0 0.00 0.00 0.00 54 1011.4
20260905200053 73 0 0.0 7.0 0.00 0.00 0.00 56 1011.3
20260905195531 73 0 0.0 5.0 0.00 0.00 0.00 54 1011.3
20260905195030 74 0 0.0 10.0 0.00 0.00 0.00 55 1011.3